Milwaukee, WI

8:00 PM CST on December 06, 2019 (GMT -0600)
Gen Mitchell International

Weather History for KMKE - November, 2019

Change the Weather History Date:

Tuesday, November 19, 2019

  Actual Average Record
Temperature  
Mean Temperature 38 °F 37 °F  
Max Temperature 41 °F 44 °F 72 °F (1953)
Min Temperature 35 °F 31 °F 6 °F (1894)
Degree Days  
Heating Degree Days 27 28  
Month to date heating degree days 632 444  
Since 1 July heating degree days 1123 1029  
Cooling Degree Days 0 0  
Month to date cooling degree days 0 0  
Year to date cooling degree days 727 641  
Moisture  
Dew Point 30 °F    
Average Humidity 75    
Maximum Humidity 79    
Minimum Humidity 65    
Precipitation  
Precipitation 0.00 in 0.09 in 1.76 in (1934)
Month to date precipitation 0.76 1.73  
Year to date precipitation 42.68 31.74  
Snow  
Snow 0.00 in 0.10 in 4.10 in (1895)
Month to date snowfall 7.2 0.8  
Since 1 July snowfall 13.3 1.1  
Since 1 September snowfall 13.3 1.1  
Snow Depth 0.00 in    
Sea Level Pressure  
Sea Level Pressure 29.87 in    
Wind  
Wind Speed 3 mph ()    
Max Wind Speed 9 mph    
Max Gust Speed 12 mph    
Visibility 9.5 miles    
Events      
T = Trace of Precipitation, MM = Missing Value Source: Averaged Metar Reports

Daily Weather History Graph

Daily Weather History Graph

Search for Another Location

Airport or City:

Astronomy

Nov. 19, 2019 Rise Set
Actual Time 6:48 AM CST 4:24 PM CST
Civil Twilight 6:17 AM CST 4:55 PM CST
Nautical Twilight 5:43 AM CST 5:30 PM CST
Astronomical Twilight 5:09 AM CST 6:03 PM CST
Moon 11:21 PM CST (11/19) 12:58 PM CST (11/19)
Length of Visible Light 10h 37m
Length of Day
9h 36m
Waning Gibbous, 51% of the Moon is Illuminated
Nov 19
Waning Gibbous
Nov 19
Last Quarter
Nov 26
New
Dec 4
First Quarter
Dec 11
Full

Hourly Weather History & Observations

Time (CST) Temp. Windchill Dew Point Humidity Pressure Visibility Wind Dir Wind Speed Gust Speed Precip Events Conditions
12:28 AM 36.0 °F 32.1 °F 28.9 °F 76% 29.75 in 10.0 mi SW 4.6 mph - N/A   Overcast
12:52 AM 36.0 °F 30.3 °F 28.9 °F 76% 29.77 in 10.0 mi WSW 6.9 mph - N/A   Overcast
1:52 AM 35.1 °F 31.0 °F 28.9 °F 78% 29.76 in 9.0 mi West 4.6 mph - N/A   Overcast
2:52 AM 35.1 °F 29.3 °F 28.9 °F 78% 29.75 in 10.0 mi WSW 6.9 mph - N/A   Overcast
3:52 AM 35.1 °F 32.2 °F 28.0 °F 76% 29.75 in 10.0 mi West 3.5 mph - N/A   Overcast
4:52 AM 35.1 °F 30.1 °F 28.0 °F 76% 29.77 in 10.0 mi WNW 5.8 mph - N/A   Overcast
5:52 AM 35.1 °F 31.0 °F 28.0 °F 76% 29.78 in 10.0 mi WNW 4.6 mph - N/A   Overcast
6:52 AM 35.1 °F 32.2 °F 28.0 °F 76% 29.79 in 10.0 mi WNW 3.5 mph - N/A   Overcast
7:52 AM 35.1 °F - 28.9 °F 78% 29.81 in 10.0 mi Calm Calm - N/A   Overcast
8:52 AM 35.1 °F - 28.9 °F 78% 29.81 in 9.0 mi Calm Calm - N/A   Overcast
9:52 AM 37.0 °F - 30.0 °F 76% 29.82 in 8.0 mi Calm Calm - N/A   Overcast
10:52 AM 37.0 °F - 30.0 °F 76% 29.83 in 8.0 mi Calm Calm - N/A   Overcast
11:33 AM 37.9 °F 35.5 °F 30.0 °F 73% 29.81 in 7.0 mi West 3.5 mph - N/A   Overcast
11:52 AM 37.9 °F 35.5 °F 30.0 °F 73% 29.83 in 7.0 mi WNW 3.5 mph - N/A   Overcast
12:52 PM 39.0 °F 35.7 °F 30.0 °F 70% 29.84 in 9.0 mi West 4.6 mph - N/A   Overcast
1:52 PM 41.0 °F 38.0 °F 30.9 °F 67% 29.85 in 10.0 mi NW 4.6 mph - N/A   Mostly Cloudy
2:52 PM 37.9 °F 34.4 °F 30.9 °F 76% 29.87 in 8.0 mi ENE 4.6 mph - N/A   Overcast
3:52 PM 37.9 °F - 30.9 °F 76% 29.91 in 9.0 mi Calm Calm - N/A   Overcast
4:52 PM 37.9 °F - 30.9 °F 76% 29.92 in 10.0 mi Calm Calm - N/A   Overcast
5:18 PM 37.9 °F - 30.9 °F 76% 29.91 in 10.0 mi Calm Calm - N/A   Overcast
5:52 PM 37.9 °F - 30.9 °F 76% 29.94 in 10.0 mi Calm Calm - N/A   Overcast
6:29 PM 39.0 °F 35.7 °F 30.9 °F 73% 29.93 in 10.0 mi West 4.6 mph - N/A   Overcast
6:52 PM 39.0 °F 34.8 °F 30.9 °F 73% 29.96 in 10.0 mi West 5.8 mph - N/A   Overcast
7:20 PM 39.0 °F 36.8 °F 30.9 °F 73% 29.94 in 10.0 mi WNW 3.5 mph - N/A   Overcast
7:52 PM 39.0 °F 35.7 °F 30.9 °F 73% 29.97 in 10.0 mi WNW 4.6 mph - N/A   Overcast
8:52 PM 39.0 °F 36.8 °F 30.9 °F 73% 29.99 in 10.0 mi West 3.5 mph - N/A   Overcast
9:52 PM 39.0 °F - 32.0 °F 76% 29.98 in 10.0 mi Calm Calm - N/A   Overcast
10:52 PM 39.0 °F - 32.0 °F 76% 30.01 in 10.0 mi Calm Calm - N/A   Overcast
11:37 PM 39.0 °F 35.7 °F 32.0 °F 76% 30.01 in 10.0 mi WSW 4.6 mph - N/A   Overcast
11:52 PM 37.9 °F 35.5 °F 32.0 °F 79% 30.03 in 10.0 mi SW 3.5 mph - N/A   Overcast